Regional Weather Roundup
Issued by NWS

Home | Current Version | Previous Version | Graphics & Text | Print | Product List | Glossary On
Versions: 1 2 3 4 5 6 7 8 9 10 11 12 13 14 15 16 17 18 19 20 21 22 23 24 25 26 27 28 29 30 31 32 33 34 35 36 37 38 39 40 41 42 43 44 45 46 47 48 49 50
000
ASUS43 KLOT 261108
RWRIL

ILLINOIS REGIONAL WEATHER ROUNDUP
NATIONAL WEATHER SERVICE CHICAGO/ROMEOVILLE IL
600 AM CDT SUN MAR 26 2017

NOTE: "FAIR" INDICATES FEW OR NO CLOUDS BELOW 12,000 FEET WITH NO
SIGNIFICANT WEATHER AND/OR OBSTRUCTIONS TO VISIBILITY.

* THESE STATIONS ARE NOT UNDER NWS QUALITY CONTROL. THEY ALSO MAY NOT
  REPORT WEATHER SUCH AS PRECIPITATION OR FOG.

ILZ001-002-007-009-015-016-024-261200-
NORTHWEST ILLINOIS

CITY           SKY/WX    TMP DP  RH WIND       PRES   REMARKS
MOLINE         FOG       49  48  97 E5        29.79S VSB 1/4
STERLING*      LGT RAIN  50  50 100 E7        29.82S FOG
SAVANNA*       DRIZZLE   46  46  99 NE6       29.83S
$$

ILZ003-004-008-010-011-017-018-261200-
NORTH CENTRAL ILLINOIS

CITY           SKY/WX    TMP DP  RH WIND       PRES   REMARKS
ROCKFORD       FOG       47  45  93 E6        29.86S VSB 3/4
FREEPORT*      FOG       43  43  99 NE7       29.86S VSB 1/4
ROCHELLE*      FOG       50  49  99 E8        29.83S VSB 1
DE KALB*       FOG       49  48  99 E12       29.84S VSB 1/2
PERU*          CLOUDY    53  52  95 SE7       29.82S
$$

ILZ005-006-012>014-019>023-261200-
NORTHEAST ILLINOIS

CITY           SKY/WX    TMP DP  RH WIND       PRES   REMARKS
CHICAGO-OHARE  CLOUDY    48  45  89 NE6       29.85F FOG
CHICAGO-MIDWAY LGT RAIN  50  49  96 E9        29.86F FOG
AURORA         CLOUDY    52  50  93 NE7       29.84S FOG
LANSING*       LGT RAIN  51  51 100 SE12      29.87S
JOLIET*        CLOUDY    55  55  97 SE8       29.84F FOG
WAUKEGAN       LGT RAIN  41  41 100 NE5       29.88F VSB 1
DUPAGE AIRPORT LGT RAIN  49  49 100 E6        29.84F FOG
KANKAKEE*      CLOUDY    55  54  97 SE7       29.86R
WHEELING       LGT RAIN  44  44 100 NE5       29.87F FOG
MORRIS*        CLOUDY    54  53  96 CALM      29.82S FOG
ROMEOVILLE*    LGT RAIN  54  54 100 SE8       29.84F
$$

LMZ740>746-261200-
SOUTHERN LAKE MICHIGAN

STATION/POSITION SKY/WX   TEMP    WIND        PRES    VSBY  WAVE
                          AIR SEA DIR/SP/G                  HT/PER
                          (F)     (DEG/KT/KT) (MB)    (MI)  (FT/S)
HARRISON CRIB              43     120/  9/ 10   N/A
BURNHAM HARBOR             43      CALM  /  7   N/A
CALUMET HARBOR             47     100/  8/ 11 1010.9S
BURNS HARBOR               50     140/  8/ 19 1012.5S
MICHIGAN CITY              48     120/ 12/ 15   N/A
$$

ILZ025>027-034>036-040-047-049-050-058-095>099-261200-
WEST-CENTRAL ILLINOIS

CITY           SKY/WX    TMP DP  RH WIND       PRES   REMARKS
QUINCY         CLOUDY    50  50 100 SW10      29.80R FOG
GALESBURG*     CLOUDY    53  53  99 SE5       29.78S
MACOMB*        CLOUDY    53  52  98 S9        29.81S
JACKSONVILLE*  CLOUDY    51  48  92 SW8       29.83R
PITTSFIELD*    CLOUDY    50  49  96 SW12      29.83S FOG
$$

ILZ028>032-037-038-041>044-048-051>054-059>061-261200-
CENTRAL ILLINOIS

CITY           SKY/WX    TMP DP  RH WIND       PRES   REMARKS
PONTIAC        CLOUDY    55  55  98 S6        29.84S
BLOOMINGTON    CLOUDY    53  52  96 S6        29.84S
DECATUR        CLOUDY    55  52  89 SW8       29.84S
PEORIA         CLOUDY    53  52  96 S7        29.82S
LACON*         CLOUDY    55  54  97 S6        29.81R
LINCOLN*       CLOUDY    54  54 100 S3        29.84R
SPRINGFIELD    CLOUDY    54  50  86 SW9       29.84R
TAYLORVILLE    CLOUDY    52  50  93 SW7       29.85S
$$

ILZ033-039-045-046-055>057-062-063-261200-
EAST-CENTRAL ILLINOIS

CITY           SKY/WX    TMP DP  RH WIND       PRES   REMARKS
CHAMPAIGN      CLOUDY    57  53  86 S10       29.85R
RANTOUL*       CLOUDY    58  57  97 S6        29.85S
MATTOON        CLOUDY    56  54  93 S7        29.85S
PARIS*         CLOUDY    57  56  97 S9        29.87S
$$

ILZ079-100>102-261200-
SOUTHWEST ILLINOIS

CITY           SKY/WX    TMP DP  RH WIND       PRES   REMARKS
ALTON          CLOUDY    51  48  88 SW8       29.85S
BELLEVILLE     MOCLDY    51  51 100 CALM      29.85R
CAHOKIA*       CLOUDY    53  47  79 SW5       29.86R
SPARTA*        CLOUDY    53  51  94 CALM      29.87R
$$

ILZ064>066-069>071-074>076-080>082-084>086-088>090-092>094-261200-
SOUTH-CENTRAL ILLINOIS

CITY           SKY/WX    TMP DP  RH WIND       PRES   REMARKS
CARBONDALE     CLOUDY    53  53 100 S5        29.88R
CAIRO*         CLOUDY    54  52  92 SW5       29.90R
EFFINGHAM*     CLOUDY    56  55  96 S6        29.88S
MARION         CLOUDY    55  54  94 S3        29.89S
MT. VERNON     CLOUDY    56  54  93 S8        29.87S
CENTRALIA*     CLOUDY    55  55  99 CALM      29.85F
SALEM*         CLOUDY    57  54  91 S7        29.86S
METROPOLIS*    CLOUDY    56  55  96 S3        29.91R
$$

ILZ067-068-072-073-078-083-087-091-261200-
SOUTHEAST ILLINOIS

CITY           SKY/WX    TMP DP  RH WIND       PRES   REMARKS
LAWRENCEVILLE  LGT RAIN  56  55  97 S8        29.90R
FLORA*         CLOUDY    57  55  94 S5        29.88S
FAIRFIELD*     CLOUDY    55  55  97 S3        29.87S
HARRISBURG*    CLOUDY    56  54  94 S5        29.90R
ROBINSON*      CLOUDY    56  54  93 S8        29.89S
CARMI*         RAIN      55  55  99 S6        29.89R
$$

ABBREVIATIONS USED IN REMARKS
   TC - TEMPERATURE IN CELSIUS
  WCI - WIND CHILL INDEX
   HX - HEAT INDEX
  VSB - VISIBILITY
$$





USA.gov is the U.S. government's official web portal to all federal, state and local government web resources and services.